| time (UTC) | temp F | wind direction | speed knots | gust knots | rain 1hr in | rain 24hr in | rain mn in | humidity % | barometer mb |
| 20260506013716 | 49 | 327 | 1.7 | 5.2 | 0.00 | 0.00 | 0.00 | 88 | 1007.9 |
| 20260506012717 | 49 | 321 | 1.7 | 5.2 | 0.00 | 0.00 | 0.00 | 88 | 1007.9 |
| 20260506011715 | 49 | 320 | 1.7 | 6.1 | 0.00 | 0.00 | 0.00 | 88 | 1007.9 |
| 20260506010715 | 49 | 305 | 1.7 | 7.0 | 0.00 | 0.00 | 0.00 | 87 | 1008.0 |
| 20260506005714 | 49 | 355 | 1.7 | 6.1 | 0.00 | 0.00 | 0.00 | 88 | 1008.1 |
| 20260506004716 | 49 | 355 | 2.6 | 6.1 | 0.00 | 0.00 | 0.00 | 87 | 1008.2 |
| 20260506003714 | 49 | 32 | 1.7 | 7.8 | 0.00 | 0.00 | 0.00 | 87 | 1008.3 |
| 20260506002714 | 49 | 32 | 1.7 | 7.0 | 0.00 | 0.00 | 0.00 | 87 | 1008.3 |
| 20260506001712 | 49 | 300 | 1.7 | 4.3 | 0.00 | 0.00 | 0.00 | 87 | 1008.4 |
| 20260506000158 | 49 | 306 | 1.7 | 4.3 | 0.00 | 0.00 | 0.00 | 87 | 1008.6 |
| 20260505235149 | 48 | 333 | 1.7 | 4.3 | 0.00 | 0.00 | 0.00 | 88 | 1008.6 |
| 20260505233709 | 48 | 308 | 0.9 | 4.3 | 0.00 | 0.00 | 0.00 | 88 | 1008.6 |
| 20260505233154 | 48 | 50 | 0.9 | 2.6 | 0.00 | 0.00 | 0.00 | 87 | 1008.7 |
| 20260505231708 | 48 | 348 | 0.9 | 2.6 | 0.00 | 0.00 | 0.00 | 87 | 1008.7 |
| 20260505230709 | 48 | 355 | 0.9 | 2.6 | 0.00 | 0.00 | 0.00 | 87 | 1008.8 |
| 20260505224710 | 48 | 5 | 0.9 | 3.5 | 0.00 | 0.00 | 0.00 | 87 | 1008.8 |
| 20260505223710 | 49 | 28 | 1.7 | 5.2 | 0.00 | 0.00 | 0.00 | 87 | 1008.9 |
| 20260505222710 | 49 | 15 | 0.9 | 6.1 | 0.00 | 0.00 | 0.00 | 87 | 1009.0 |
| 20260505222147 | 49 | 344 | 1.7 | 4.3 | 0.00 | 0.00 | 0.00 | 87 | 1008.9 |
| 20260505220708 | 49 | 11 | 1.7 | 5.2 | 0.00 | 0.00 | 0.00 | 87 | 1009.0 |
| 20260505215708 | 49 | 348 | 0.9 | 3.5 | 0.00 | 0.00 | 0.00 | 87 | 1009.0 |
| 20260505214708 | 50 | 342 | 1.7 | 3.5 | 0.00 | 0.00 | 0.00 | 86 | 1009.1 |
| 20260505214147 | 50 | 268 | 1.7 | 5.2 | 0.00 | 0.00 | 0.00 | 86 | 1009.1 |
| 20260505212712 | 50 | 32 | 0.9 | 4.3 | 0.00 | 0.00 | 0.00 | 85 | 1009.1 |
| 20260505211709 | 50 | 19 | 1.7 | 7.8 | 0.00 | 0.00 | 0.00 | 85 | 1009.2 |
| 20260505210708 | 50 | 28 | 1.7 | 5.2 | 0.00 | 0.00 | 0.00 | 85 | 1009.1 |
| 20260505205709 | 51 | 17 | 1.7 | 7.8 | 0.00 | 0.00 | 0.00 | 84 | 1009.2 |
| 20260505204708 | 51 | 38 | 2.6 | 7.8 | 0.00 | 0.00 | 0.00 | 84 | 1009.2 |
| 20260505203706 | 51 | 70 | 2.6 | 7.0 | 0.00 | 0.00 | 0.00 | 83 | 1009.2 |
| 20260505202706 | 51 | 42 | 1.7 | 7.8 | 0.00 | 0.00 | 0.00 | 84 | 1009.2 |
| 20260505201707 | 51 | 28 | 1.7 | 7.8 | 0.00 | 0.00 | 0.00 | 84 | 1009.3 |
| 20260505200705 | 51 | 342 | 2.6 | 8.7 | 0.00 | 0.00 | 0.00 | 84 | 1009.3 |
| 20260505195704 | 52 | 169 | 2.6 | 8.7 | 0.00 | 0.00 | 0.00 | 83 | 1009.1 |
| 20260505194705 | 52 | 13 | 1.7 | 8.7 | 0.00 | 0.00 | 0.00 | 84 | 1009.1 |
| 20260505194149 | 52 | 16 | 0.9 | 4.3 | 0.00 | 0.00 | 0.00 | 84 | 1009.0 |
| 20260505192705 | 52 | 32 | 0.9 | 4.3 | 0.00 | 0.00 | 0.00 | 84 | 1008.9 |
| 20260505191704 | 53 | 55 | 1.7 | 6.1 | 0.00 | 0.00 | 0.00 | 82 | 1008.8 |
| 20260505190705 | 53 | 28 | 1.7 | 8.7 | 0.00 | 0.00 | 0.00 | 82 | 1008.8 |
| 20260505185703 | 53 | 348 | 0.9 | 6.1 | 0.00 | 0.00 | 0.00 | 82 | 1008.6 |
| 20260505183702 | 54 | 323 | 1.7 | 7.0 | 0.00 | 0.00 | 0.00 | 80 | 1008.5 |
| 20260505182705 | 54 | 333 | 0.9 | 4.3 | 0.00 | 0.00 | 0.00 | 80 | 1008.4 |
| 20260505182145 | 55 | 55 | 1.7 | 6.1 | 0.00 | 0.00 | 0.00 | 80 | 1008.3 |
| 20260505180701 | 55 | 17 | 1.7 | 7.8 | 0.00 | 0.00 | 0.00 | 80 | 1008.3 |
| 20260505175704 | 56 | 5 | 1.7 | 6.1 | 0.00 | 0.00 | 0.00 | 79 | 1008.3 |
| 20260505174702 | 56 | 25 | 1.7 | 6.1 | 0.00 | 0.00 | 0.00 | 78 | 1008.2 |
| 20260505173702 | 56 | 20 | 1.7 | 6.1 | 0.00 | 0.00 | 0.00 | 78 | 1008.2 |
| 20260505172702 | 57 | 334 | 2.6 | 7.0 | 0.00 | 0.00 | 0.00 | 77 | 1008.2 |
| 20260505171704 | 57 | 0 | 1.7 | 6.1 | 0.00 | 0.00 | 0.00 | 76 | 1008.2 |
| 20260505170701 | 57 | 156 | 1.7 | 7.0 | 0.00 | 0.00 | 0.00 | 77 | 1008.2 |
| 20260505165702 | 58 | 355 | 1.7 | 6.1 | 0.00 | 0.00 | 0.00 | 76 | 1008.3 |
| 20260505164659 | 58 | 51 | 1.7 | 7.0 | 0.00 | 0.00 | 0.00 | 76 | 1008.4 |
| 20260505163700 | 59 | 321 | 2.6 | 7.8 | 0.00 | 0.00 | 0.00 | 76 | 1008.5 |
| 20260505162701 | 60 | 44 | 2.6 | 7.0 | 0.00 | 0.00 | 0.00 | 75 | 1008.5 |
| 20260505162150 | 60 | 28 | 2.6 | 7.8 | 0.00 | 0.00 | 0.00 | 74 | 1008.5 |
| 20260505160701 | 60 | 345 | 1.7 | 6.1 | 0.00 | 0.00 | 0.00 | 75 | 1008.4 |
| 20260505152700 | 59 | 126 | 3.5 | 7.8 | 0.00 | 0.00 | 0.00 | 79 | 1008.6 |
| 20260505151700 | 58 | 44 | 1.7 | 7.0 | 0.00 | 0.00 | 0.00 | 78 | 1008.7 |
| 20260505150700 | 58 | 52 | 2.6 | 6.1 | 0.00 | 0.00 | 0.00 | 81 | 1008.7 |
| 20260505130137 | 56 | 65 | 4.3 | 10.4 | 0.00 | 0.01 | 0.00 | 86 | 1009.6 |
| 20260505123649 | 56 | 68 | 4.3 | 10.4 | 0.00 | 0.01 | 0.00 | 89 | 1009.7 |
| 20260505122650 | 56 | 63 | 6.1 | 10.4 | 0.00 | 0.01 | 0.00 | 89 | 1009.7 |
| 20260505120633 | 56 | 75 | 7.8 | 11.3 | 0.00 | 0.01 | 0.00 | 87 | 1009.8 |
| 20260505115633 | 56 | 52 | 7.0 | 13.0 | 0.00 | 0.01 | 0.00 | 88 | 1009.7 |
| 20260505114631 | 56 | 36 | 4.3 | 10.4 | 0.00 | 0.01 | 0.00 | 89 | 1009.7 |
| 20260505113630 | 55 | 61 | 4.3 | 9.6 | 0.00 | 0.01 | 0.00 | 89 | 1009.8 |
| 20260505113113 | 55 | 57 | 4.3 | 10.4 | 0.00 | 0.01 | 0.00 | 89 | 1009.9 |
| 20260505111633 | 56 | 25 | 4.3 | 12.2 | 0.00 | 0.01 | 0.00 | 89 | 1009.9 |
| 20260505111110 | 55 | 55 | 3.5 | 9.6 | 0.00 | 0.01 | 0.00 | 90 | 1010.0 |
| 20260505101604 | 54 | 63 | 2.6 | 7.0 | 0.00 | 0.01 | 0.00 | 91 | 1010.3 |
| 20260505100603 | 54 | 139 | 1.7 | 7.0 | 0.00 | 0.01 | 0.00 | 91 | 1010.3 |
| 20260505095601 | 53 | 59 | 1.7 | 7.0 | 0.00 | 0.01 | 0.00 | 92 | 1010.3 |
| 20260505094604 | 53 | 57 | 2.6 | 7.8 | 0.00 | 0.01 | 0.00 | 92 | 1010.4 |
| 20260505093533 | 52 | 61 | 3.5 | 9.6 | 0.00 | 0.01 | 0.00 | 93 | 1010.4 |
| 20260505092531 | 52 | 57 | 4.3 | 9.6 | 0.00 | 0.01 | 0.00 | 93 | 1010.5 |
| 20260505091531 | 52 | 44 | 3.5 | 7.8 | 0.00 | 0.01 | 0.00 | 93 | 1010.5 |
| 20260505090521 | 51 | 22 | 4.3 | 8.7 | 0.00 | 0.01 | 0.00 | 94 | 1010.5 |
| 20260505085520 | 51 | 61 | 3.5 | 7.8 | 0.00 | 0.01 | 0.00 | 94 | 1010.6 |
| 20260505084958 | 51 | 80 | 3.5 | 8.7 | 0.00 | 0.01 | 0.00 | 95 | 1010.7 |
| 20260505083518 | 51 | 74 | 4.3 | 8.7 | 0.00 | 0.01 | 0.00 | 96 | 1010.7 |
| 20260505082518 | 51 | 90 | 3.5 | 9.6 | 0.00 | 0.01 | 0.00 | 96 | 1010.5 |
| 20260505081945 | 51 | 78 | 3.5 | 9.6 | 0.00 | 0.01 | 0.00 | 96 | 1010.5 |
| 20260505080511 | 51 | 346 | 3.5 | 8.7 | 0.00 | 0.01 | 0.00 | 97 | 1010.5 |
| 20260505075514 | 51 | 63 | 3.5 | 8.7 | 0.00 | 0.01 | 0.00 | 96 | 1010.4 |
| 20260505074505 | 51 | 94 | 2.6 | 7.8 | 0.00 | 0.01 | 0.00 | 97 | 1010.4 |
| 20260505073506 | 51 | 38 | 3.5 | 7.0 | 0.00 | 0.01 | 0.00 | 97 | 1010.4 |
| 20260505072945 | 51 | 9 | 2.6 | 7.8 | 0.00 | 0.01 | 0.00 | 98 | 1010.4 |
| 20260505071506 | 51 | 63 | 2.6 | 8.7 | 0.00 | 0.01 | 0.00 | 98 | 1010.4 |
| 20260505070941 | 51 | 42 | 3.5 | 7.8 | 0.00 | 0.01 | 0.00 | 98 | 1010.5 |
| 20260505065502 | 51 | 351 | 2.6 | 6.1 | 0.00 | 0.01 | 0.00 | 98 | 1010.5 |
| 20260505064501 | 51 | 67 | 1.7 | 7.8 | 0.00 | 0.01 | 0.00 | 98 | 1010.5 |
| 20260505063506 | 51 | 24 | 2.6 | 6.1 | 0.00 | 0.01 | 0.00 | 98 | 1010.6 |
| 20260505062505 | 51 | 34 | 1.7 | 5.2 | 0.00 | 0.01 | 0.00 | 98 | 1010.6 |
| 20260505061501 | 51 | 63 | 1.7 | 5.2 | 0.00 | 0.01 | 0.00 | 98 | 1010.7 |
| 20260505060500 | 51 | 31 | 1.7 | 7.0 | 0.00 | 0.01 | 0.00 | 98 | 1010.7 |
| 20260505055501 | 51 | 29 | 1.7 | 6.1 | 0.00 | 0.01 | 0.00 | 97 | 1010.7 |
| 20260505054459 | 51 | 315 | 1.7 | 5.2 | 0.00 | 0.01 | 0.00 | 97 | 1010.8 |
| 20260505053457 | 51 | 33 | 0.9 | 5.2 | 0.00 | 0.01 | 0.00 | 96 | 1010.8 |
| 20260505052459 | 51 | 59 | 1.7 | 4.3 | 0.00 | 0.01 | 0.00 | 96 | 1010.9 |
| 20260505051457 | 51 | 18 | 0.9 | 3.5 | 0.00 | 0.01 | 0.00 | 96 | 1010.8 |
| 20260505050450 | 51 | 317 | 1.7 | 5.2 | 0.00 | 0.01 | 0.00 | 96 | 1010.6 |
| 20260505040438 | 51 | 86 | 0.9 | 2.6 | 0.00 | 0.01 | 0.00 | 95 | 1010.6 |
| 20260505035917 | 51 | 46 | 1.7 | 7.8 | 0.00 | 0.01 | 0.00 | 94 | 1010.6 |
| 20260505034436 | 51 | 18 | 1.7 | 6.1 | 0.00 | 0.01 | 0.00 | 94 | 1010.5 |
| 20260505033435 | 51 | 5 | 1.7 | 7.8 | 0.00 | 0.01 | 0.00 | 94 | 1010.6 |
| 20260505032436 | 51 | 320 | 2.6 | 7.0 | 0.00 | 0.01 | 0.00 | 94 | 1010.6 |
| 20260505031436 | 51 | 65 | 1.7 | 7.0 | 0.00 | 0.01 | 0.00 | 94 | 1010.7 |
| 20260505030436 | 51 | 347 | 1.7 | 7.0 | 0.00 | 0.01 | 0.00 | 94 | 1010.7 |
| 20260505025436 | 51 | 67 | 1.7 | 7.8 | 0.00 | 0.01 | 0.00 | 94 | 1010.8 |
| 20260505024437 | 52 | 54 | 2.6 | 8.7 | 0.00 | 0.01 | 0.00 | 93 | 1010.8 |
| 20260505023435 | 52 | 5 | 1.7 | 7.0 | 0.00 | 0.01 | 0.00 | 94 | 1010.9 |
| 20260505022437 | 52 | 69 | 1.7 | 7.8 | 0.00 | 0.01 | 0.00 | 94 | 1010.8 |
| 20260505021434 | 52 | 17 | 1.7 | 5.2 | 0.00 | 0.01 | 0.00 | 93 | 1010.8 |
| 20260505020434 | 52 | 9 | 1.7 | 5.2 | 0.00 | 0.01 | 0.00 | 93 | 1010.8 |
| 20260505015434 | 53 | 73 | 1.7 | 7.0 | 0.00 | 0.01 | 0.00 | 93 | 1010.7 |
| 20260505014433 | 53 | 355 | 1.7 | 6.1 | 0.00 | 0.01 | 0.00 | 93 | 1010.8 |